| time (UTC) | temp F | wind direction | speed knots | gust knots | rain 1hr in | rain 24hr in | rain mn in | humidity % | barometer mb |
| 20260504032506 | 51 | 133 | 1.7 | 6.1 | 0.00 | 0.15 | 0.15 | 67 | 1012.9 |
| 20260504032005 | 50 | 125 | 1.7 | 6.1 | 0.00 | 0.15 | 0.15 | 67 | 1013.0 |
| 20260504031505 | 50 | 135 | 1.7 | 6.1 | 0.00 | 0.15 | 0.15 | 67 | 1013.1 |
| 20260504031006 | 50 | 156 | 1.7 | 4.3 | 0.00 | 0.15 | 0.15 | 67 | 1013.1 |
| 20260504030506 | 50 | 139 | 0.9 | 2.6 | 0.00 | 0.15 | 0.15 | 67 | 1013.1 |
| 20260504030005 | 50 | 140 | 1.7 | 2.6 | 0.00 | 0.15 | 0.15 | 68 | 1013.3 |
| 20260504025505 | 50 | 151 | 0.9 | 2.6 | 0.00 | 0.15 | 0.15 | 67 | 1013.3 |
| 20260504025005 | 51 | 127 | 0.9 | 1.7 | 0.00 | 0.15 | 0.15 | 67 | 1013.4 |
| 20260504024505 | 51 | 131 | 0.9 | 1.7 | 0.00 | 0.15 | 0.15 | 66 | 1013.4 |
| 20260504024005 | 51 | 131 | 0.9 | 1.7 | 0.00 | 0.15 | 0.15 | 66 | 1013.4 |
| 20260504022505 | 52 | 129 | 0.9 | 1.7 | 0.00 | 0.15 | 0.15 | 64 | 1013.4 |
| 20260504022006 | 52 | 138 | 0.9 | 2.6 | 0.00 | 0.15 | 0.15 | 64 | 1013.4 |
| 20260504021506 | 52 | 139 | 0.9 | 2.6 | 0.00 | 0.15 | 0.15 | 63 | 1013.5 |
| 20260504020505 | 53 | 149 | 0.9 | 2.6 | 0.00 | 0.15 | 0.15 | 62 | 1013.4 |
| 20260504015504 | 53 | 135 | 1.7 | 2.6 | 0.00 | 0.15 | 0.15 | 61 | 1013.4 |
| 20260504015005 | 53 | 141 | 1.7 | 1.7 | 0.00 | 0.15 | 0.15 | 61 | 1013.4 |
| 20260504014505 | 54 | 152 | 0.9 | 1.7 | 0.00 | 0.15 | 0.15 | 60 | 1013.2 |
| 20260504014005 | 54 | 168 | 0.9 | 2.6 | 0.00 | 0.15 | 0.15 | 59 | 1013.2 |
| 20260504013505 | 54 | 172 | 0.9 | 2.6 | 0.00 | 0.15 | 0.15 | 58 | 1013.3 |
| 20260504012506 | 55 | 218 | 0.9 | 1.7 | 0.00 | 0.15 | 0.15 | 56 | 1013.3 |
| 20260504012006 | 55 | 271 | 0.9 | 1.7 | 0.00 | 0.15 | 0.15 | 55 | 1013.4 |
| 20260504011505 | 56 | 291 | 0.0 | 0.9 | 0.00 | 0.15 | 0.15 | 53 | 1013.4 |
| 20260504011005 | 57 | 291 | 0.0 | 0.9 | 0.00 | 0.15 | 0.15 | 52 | 1013.4 |
| 20260504010506 | 57 | 291 | 0.0 | 0.9 | 0.00 | 0.15 | 0.15 | 52 | 1013.4 |
| 20260504010004 | 58 | 291 | 0.0 | 0.9 | 0.00 | 0.15 | 0.15 | 50 | 1013.3 |
| 20260504005505 | 59 | 303 | 0.0 | 1.7 | 0.00 | 0.15 | 0.15 | 48 | 1013.3 |
| 20260504003505 | 61 | 204 | 1.7 | 7.0 | 0.00 | 0.15 | 0.15 | 44 | 1012.8 |
| 20260504003006 | 61 | 231 | 2.6 | 7.0 | 0.00 | 0.15 | 0.15 | 44 | 1012.7 |
| 20260504002505 | 61 | 233 | 2.6 | 7.0 | 0.00 | 0.15 | 0.15 | 44 | 1012.7 |
| 20260504001005 | 62 | 245 | 3.5 | 7.8 | 0.00 | 0.15 | 0.15 | 42 | 1012.7 |
| 20260504000505 | 62 | 231 | 2.6 | 8.7 | 0.00 | 0.15 | 0.15 | 42 | 1012.7 |
| 20260503235506 | 63 | 217 | 4.3 | 8.7 | 0.00 | 0.15 | 0.15 | 41 | 1012.8 |
| 20260503235005 | 63 | 285 | 3.5 | 8.7 | 0.00 | 0.15 | 0.15 | 41 | 1012.7 |
| 20260503234504 | 63 | 284 | 2.6 | 13.9 | 0.00 | 0.15 | 0.15 | 41 | 1012.5 |
| 20260503234006 | 63 | 196 | 6.1 | 13.9 | 0.00 | 0.15 | 0.15 | 40 | 1012.7 |
| 20260503233505 | 63 | 265 | 5.2 | 13.0 | 0.00 | 0.15 | 0.15 | 40 | 1012.7 |
| 20260503233004 | 63 | 255 | 6.1 | 13.0 | 0.00 | 0.15 | 0.15 | 40 | 1012.8 |
| 20260503232504 | 63 | 240 | 2.6 | 8.7 | 0.00 | 0.15 | 0.15 | 41 | 1012.7 |
| 20260503231504 | 64 | 234 | 5.2 | 10.4 | 0.00 | 0.15 | 0.15 | 40 | 1012.7 |
| 20260503230505 | 64 | 248 | 4.3 | 14.8 | 0.00 | 0.15 | 0.15 | 39 | 1012.8 |
| 20260503230004 | 64 | 234 | 7.0 | 11.3 | 0.00 | 0.15 | 0.15 | 39 | 1012.9 |
| 20260503225504 | 64 | 226 | 3.5 | 13.0 | 0.00 | 0.15 | 0.15 | 39 | 1013.0 |
| 20260503225004 | 64 | 237 | 5.2 | 13.9 | 0.00 | 0.15 | 0.15 | 39 | 1013.2 |
| 20260503224505 | 64 | 247 | 5.2 | 13.9 | 0.00 | 0.15 | 0.15 | 39 | 1013.3 |
| 20260503224004 | 64 | 251 | 4.3 | 12.2 | 0.00 | 0.15 | 0.15 | 38 | 1013.6 |
| 20260503223505 | 65 | 245 | 5.2 | 12.2 | 0.00 | 0.15 | 0.15 | 37 | 1013.6 |
| 20260503223004 | 65 | 217 | 2.6 | 10.4 | 0.00 | 0.15 | 0.15 | 40 | 1013.6 |
| 20260503221505 | 65 | 227 | 4.3 | 11.3 | 0.00 | 0.15 | 0.15 | 38 | 1013.9 |
| 20260503221005 | 65 | 220 | 1.7 | 11.3 | 0.00 | 0.15 | 0.15 | 38 | 1014.0 |
| 20260503220004 | 66 | 215 | 3.5 | 15.6 | 0.00 | 0.15 | 0.15 | 37 | 1013.9 |
| 20260503215506 | 66 | 266 | 7.8 | 15.6 | 0.00 | 0.15 | 0.15 | 36 | 1014.0 |
| 20260503215004 | 66 | 262 | 2.6 | 14.8 | 0.00 | 0.15 | 0.15 | 37 | 1014.0 |
| 20260503214504 | 66 | 255 | 7.8 | 14.8 | 0.00 | 0.15 | 0.15 | 35 | 1014.3 |
| 20260503214004 | 66 | 238 | 5.2 | 15.6 | 0.00 | 0.15 | 0.15 | 36 | 1014.5 |
| 20260503213004 | 65 | 275 | 8.7 | 15.6 | 0.00 | 0.15 | 0.15 | 36 | 1014.7 |
| 20260503212504 | 66 | 262 | 5.2 | 14.8 | 0.00 | 0.15 | 0.15 | 36 | 1014.7 |
| 20260503212004 | 66 | 268 | 7.8 | 14.8 | 0.00 | 0.15 | 0.15 | 35 | 1015.0 |
| 20260503211504 | 66 | 247 | 7.8 | 14.8 | 0.00 | 0.15 | 0.15 | 35 | 1015.0 |
| 20260503210504 | 66 | 301 | 5.2 | 11.3 | 0.00 | 0.15 | 0.15 | 36 | 1014.9 |
| 20260503210005 | 66 | 250 | 3.5 | 13.0 | 0.00 | 0.15 | 0.15 | 36 | 1014.6 |
| 20260503205504 | 65 | 226 | 5.2 | 13.0 | 0.00 | 0.15 | 0.15 | 34 | 1014.7 |
| 20260503205004 | 66 | 281 | 4.3 | 12.2 | 0.00 | 0.15 | 0.15 | 35 | 1014.8 |
| 20260503204004 | 66 | 233 | 5.2 | 12.2 | 0.00 | 0.15 | 0.15 | 34 | 1015.1 |
| 20260503203505 | 66 | 263 | 6.1 | 13.0 | 0.00 | 0.15 | 0.15 | 33 | 1015.2 |
| 20260503203004 | 65 | 281 | 7.8 | 13.0 | 0.00 | 0.15 | 0.15 | 33 | 1015.3 |
| 20260503202506 | 65 | 287 | 6.1 | 13.0 | 0.00 | 0.15 | 0.15 | 36 | 1015.4 |
| 20260503202005 | 64 | 265 | 4.3 | 13.0 | 0.00 | 0.15 | 0.15 | 34 | 1015.5 |
| 20260503201004 | 64 | 241 | 3.5 | 10.4 | 0.00 | 0.15 | 0.15 | 34 | 1015.6 |
| 20260503200504 | 65 | 286 | 4.3 | 8.7 | 0.00 | 0.15 | 0.15 | 35 | 1015.8 |
| 20260503200004 | 65 | 299 | 4.3 | 11.3 | 0.00 | 0.15 | 0.15 | 32 | 1015.8 |
| 20260503195504 | 65 | 227 | 6.1 | 13.0 | 0.00 | 0.15 | 0.15 | 33 | 1016.0 |
| 20260503195004 | 65 | 221 | 5.2 | 13.0 | 0.00 | 0.15 | 0.15 | 34 | 1016.2 |
| 20260503194504 | 65 | 243 | 4.3 | 13.0 | 0.00 | 0.15 | 0.15 | 34 | 1016.2 |
| 20260503194004 | 65 | 233 | 4.3 | 13.9 | 0.00 | 0.15 | 0.15 | 33 | 1016.3 |
| 20260503193505 | 65 | 305 | 5.2 | 13.9 | 0.00 | 0.15 | 0.15 | 33 | 1016.5 |
| 20260503192505 | 64 | 260 | 5.2 | 12.2 | 0.00 | 0.15 | 0.15 | 33 | 1016.9 |
| 20260503192004 | 64 | 300 | 5.2 | 12.2 | 0.00 | 0.15 | 0.15 | 34 | 1016.8 |
| 20260503191504 | 64 | 262 | 2.6 | 11.3 | 0.00 | 0.15 | 0.15 | 35 | 1017.0 |
| 20260503191004 | 64 | 258 | 6.1 | 11.3 | 0.00 | 0.15 | 0.15 | 34 | 1017.2 |
| 20260503190504 | 64 | 304 | 4.3 | 10.4 | 0.00 | 0.15 | 0.15 | 37 | 1017.2 |
| 20260503185505 | 64 | 214 | 3.5 | 15.6 | 0.00 | 0.15 | 0.15 | 35 | 1017.4 |
| 20260503184504 | 64 | 252 | 6.1 | 11.3 | 0.00 | 0.15 | 0.15 | 32 | 1017.4 |
| 20260503184005 | 63 | 265 | 4.3 | 10.4 | 0.00 | 0.15 | 0.15 | 35 | 1017.5 |
| 20260503183505 | 63 | 201 | 2.6 | 12.2 | 0.00 | 0.15 | 0.15 | 37 | 1017.7 |
| 20260503183004 | 62 | 242 | 5.2 | 13.9 | 0.00 | 0.15 | 0.15 | 33 | 1017.8 |
| 20260503182504 | 62 | 246 | 6.1 | 13.9 | 0.00 | 0.15 | 0.15 | 34 | 1017.9 |
| 20260503182004 | 62 | 218 | 5.2 | 11.3 | 0.00 | 0.15 | 0.15 | 34 | 1018.0 |
| 20260503181506 | 62 | 233 | 4.3 | 13.0 | 0.00 | 0.15 | 0.15 | 32 | 1018.0 |
| 20260503181005 | 62 | 280 | 4.3 | 17.4 | 0.00 | 0.15 | 0.15 | 34 | 1018.2 |
| 20260503180504 | 62 | 288 | 8.7 | 17.4 | 0.00 | 0.15 | 0.15 | 32 | 1018.2 |
| 20260503180005 | 62 | 238 | 6.1 | 13.9 | 0.00 | 0.15 | 0.15 | 34 | 1018.2 |
| 20260503175504 | 62 | 260 | 5.2 | 12.2 | 0.00 | 0.15 | 0.15 | 32 | 1018.3 |
| 20260503175004 | 61 | 218 | 4.3 | 12.2 | 0.00 | 0.15 | 0.15 | 37 | 1018.4 |
| 20260503174503 | 61 | 252 | 3.5 | 12.2 | 0.00 | 0.15 | 0.15 | 34 | 1018.4 |
| 20260503174004 | 61 | 237 | 7.8 | 14.8 | 0.00 | 0.15 | 0.15 | 31 | 1018.5 |
| 20260503173504 | 61 | 238 | 7.8 | 14.8 | 0.00 | 0.15 | 0.15 | 33 | 1018.6 |
| 20260503173006 | 61 | 247 | 5.2 | 10.4 | 0.00 | 0.15 | 0.15 | 31 | 1018.6 |
| 20260503172505 | 61 | 277 | 4.3 | 13.9 | 0.00 | 0.15 | 0.15 | 45 | 1018.7 |
| 20260503172004 | 61 | 270 | 6.1 | 15.6 | 0.00 | 0.15 | 0.15 | 43 | 1018.7 |
| 20260503171004 | 61 | 218 | 2.6 | 10.4 | 0.00 | 0.15 | 0.15 | 46 | 1018.9 |
| 20260503170505 | 60 | 262 | 4.3 | 14.8 | 0.00 | 0.15 | 0.15 | 49 | 1018.9 |
| 20260503151004 | 79 | 294 | 6.1 | 11.3 | 0.03 | 0.03 | 0.03 | 32 | 1020.3 |
| 20260503150504 | 72 | 231 | 5.2 | 11.3 | 0.02 | 0.02 | 0.02 | 38 | 1020.3 |
| 20260503131007 | 45 | 143 | 0.0 | 1.7 | 0.00 | 0.00 | 0.00 | 93 | 1020.4 |
| 20260503130506 | 44 | 137 | 0.9 | 1.7 | 0.00 | 0.00 | 0.00 | 94 | 1020.3 |
| 20260503090506 | 32 | 336 | 0.0 | 0.0 | 0.00 | 0.00 | 0.00 | 93 | 1019.3 |
| 20260503081505 | 32 | 336 | 0.0 | 0.9 | 0.00 | 0.00 | 0.00 | 93 | 1019.1 |
| 20260503080506 | 33 | 336 | 0.0 | 0.9 | 0.00 | 0.00 | 0.00 | 93 | 1019.1 |
| 20260503072505 | 33 | 336 | 0.0 | 0.0 | 0.00 | 0.00 | 0.00 | 92 | 1019.0 |
| 20260503072006 | 33 | 336 | 0.0 | 0.0 | 0.00 | 0.00 | 0.00 | 92 | 1019.0 |
| 20260503071006 | 33 | 336 | 0.0 | 0.0 | 0.00 | 0.00 | 0.00 | 92 | 1019.0 |
| 20260503055005 | 34 | 336 | 0.0 | 0.0 | 0.00 | 0.00 | 0.00 | 92 | 1019.2 |
| 20260503054506 | 35 | 336 | 0.0 | 0.0 | 0.00 | 0.00 | 0.00 | 92 | 1019.4 |
| 20260503054006 | 35 | 336 | 0.0 | 0.0 | 0.00 | 0.00 | 0.00 | 92 | 1019.4 |
| 20260503053507 | 35 | 336 | 0.0 | 0.0 | 0.00 | 0.00 | 0.00 | 92 | 1019.2 |
| 20260503053006 | 35 | 336 | 0.0 | 0.0 | 0.00 | 0.00 | 0.00 | 92 | 1019.3 |
| 20260503052506 | 35 | 336 | 0.0 | 0.9 | 0.00 | 0.00 | 0.00 | 91 | 1019.3 |
| 20260503052005 | 35 | 336 | 0.0 | 0.9 | 0.00 | 0.00 | 0.00 | 91 | 1019.2 |
| 20260503050006 | 36 | 336 | 0.0 | 0.0 | 0.00 | 0.00 | 0.00 | 91 | 1019.1 |
| 20260503045505 | 36 | 336 | 0.0 | 0.0 | 0.00 | 0.00 | 0.00 | 91 | 1019.1 |
| 20260503045006 | 37 | 336 | 0.0 | 0.0 | 0.00 | 0.00 | 0.00 | 91 | 1019.1 |
| 20260503044507 | 37 | 336 | 0.0 | 0.9 | 0.00 | 0.00 | 0.00 | 91 | 1019.1 |
| 20260503044006 | 37 | 336 | 0.0 | 0.9 | 0.00 | 0.00 | 0.00 | 91 | 1019.0 |
| 20260503043506 | 37 | 336 | 0.0 | 0.9 | 0.00 | 0.00 | 0.00 | 91 | 1019.1 |
| 20260503043007 | 37 | 336 | 0.0 | 0.9 | 0.00 | 0.00 | 0.00 | 91 | 1019.1 |
| 20260503042505 | 37 | 336 | 0.0 | 0.9 | 0.00 | 0.00 | 0.00 | 91 | 1019.1 |
| 20260503042005 | 38 | 336 | 0.0 | 0.9 | 0.00 | 0.00 | 0.00 | 91 | 1019.1 |
| 20260503041507 | 38 | 336 | 0.0 | 0.0 | 0.00 | 0.00 | 0.00 | 91 | 1019.0 |
| 20260503041006 | 38 | 336 | 0.0 | 0.0 | 0.00 | 0.00 | 0.00 | 90 | 1019.1 |
| 20260503040505 | 38 | 336 | 0.0 | 0.0 | 0.00 | 0.00 | 0.00 | 90 | 1019.0 |
| 20260503040005 | 38 | 336 | 0.0 | 0.0 | 0.00 | 0.00 | 0.00 | 90 | 1019.0 |
| 20260503035505 | 38 | 336 | 0.0 | 0.0 | 0.00 | 0.00 | 0.00 | 90 | 1019.1 |
| 20260503035005 | 38 | 336 | 0.0 | 0.0 | 0.00 | 0.00 | 0.00 | 90 | 1019.1 |
| 20260503034505 | 38 | 336 | 0.0 | 0.0 | 0.00 | 0.00 | 0.00 | 90 | 1019.1 |
| 20260503034006 | 38 | 336 | 0.0 | 0.0 | 0.00 | 0.00 | 0.00 | 90 | 1019.0 |
| 20260503033007 | 39 | 336 | 0.0 | 0.0 | 0.00 | 0.00 | 0.00 | 89 | 1019.0 |